User: anonymous   Login
Location: Mentone
(34.5413°N, 85.5351°W)
Time: 13:16:06
(UTC-06:00)
Language:

ADEOS Rocket - Orbit

View from above orbital plane
View from above orbital plane
View from above satellite
View from above satellite

Ground track
Ground track

The orbit data is extracted from the following two-line orbital elements,

1 24279U 96046C   17016.93437828 +.00000002 +00000-0 +50200-4 0  9991
2 24279 098.7332 339.7237 0299553 314.4442 089.2780 13.47073785003605
Epoch (UTC): 16 January 2017 22:25:30
Eccentricity: 0.0299553
inclination: 98.7332°
perigee height: 859 km
apogee height: 1306 km
right ascension of ascending node: 339.7237°
argument of perigee: 314.4442°
revolutions per day: 13.47073785
mean anomaly at epoch: 89.2780°
orbit number at epoch: 360

The dashed part of the orbit path shows where the satellite is in the earth's shadow,  

DLR